LANDSAT 8

Last updated on Thu Nov 21 2024 00:02:27 GMT+0000 (Coordinated Universal Time)

1 39084U 13008A 24325.56614068 .00000832 00000+0 19470-3 0 9994 2 39084 98.2130 33.1526 0001317 83.9002 276.2346 14.57091108614369
UTC large
Height (km)
Speed (km/s)
/
Latitude / Longitude
Inclination (degrees)
Orbital Period (minutes)
Azimuth
Elevation
Range (km)
Doppler Factor

Next 0 passes for location: London (51.5072 / 0.1276)

Sorry there are no passes over London.